Location: Highland Meadows Observing Site
(48.4428°N, 114.5461°W)
Time: 01:47:02
(UTC-07:00)

Amateur Radio Satellites - All Passes

Search period start: 26 November 2014 01:17
Search period end: 27 November 2014 01:17
Location: Highland Meadows Observing Site, 48.4428°N, 114.5461°W

Satellite Date Start Highest point End Downlink Frequencies (MHz)
Time Altitude Azimuth
Oscar 19 26 Nov 01:17:15 01:21:16 22° 92° (E) 01:25:16 437.125/150
POLYITAN 1 26 Nov 01:22:04 01:24:09 14° 302° (WNW) 01:26:13 437.675
QB50P2 26 Nov 01:24:14 01:26:10 13° 302° (WNW) 01:28:06 145.880/145.840
BEESAT 26 Nov 01:28:03 01:32:48 63° 258° (WSW) 01:37:36 436.000
DUCHIFAT 1 26 Nov 01:30:45 01:32:11 12° 304° (WNW) 01:33:37 145.980
AUBIESAT-1 26 Nov 01:38:08 01:41:36 25° 262° (W) 01:45:18 437.475
M-CUBED/EXP-1 PRIME 26 Nov 01:43:46 01:46:56 21° 264° (W) 01:50:18 437.505
CUSAT 1 26 Nov 01:50:33 01:53:20 16° 269° (W) 01:56:31 437.405
KKS-1 26 Nov 01:55:20 01:59:43 59° 71° (ENE) 02:04:06 437.445
RS-15 26 Nov 01:56:54 02:07:56 68° 240° (WSW) 02:19:27 29.354- 29.394
PCSat 26 Nov 02:05:34 02:08:06 13° 18° (NNE) 02:10:37 145.827
ITAMSAT 1 26 Nov 02:10:04 02:14:24 26° 93° (E) 02:18:41 435.822/435.867
ISS 26 Nov 02:17:04 02:20:18 55° 348° (NNW) 02:23:34 145.825
ITUPSAT 1 26 Nov 02:25:18 02:28:55 21° 268° (W) 02:32:33 437.325
SWISSCUBE 26 Nov 02:37:17 02:40:05 15° 271° (W) 02:42:54 437.505
Gurwin Techsat 1B 26 Nov 02:41:58 02:46:39 30° 94° (E) 02:51:17 435.225
BEESAT 3 26 Nov 02:45:32 02:47:32 13° 22° (NNE) 02:49:32 437.485
STARS 26 Nov 02:51:14 02:55:34 57° 259° (W) 02:59:55 437.465
Oscar 19 26 Nov 02:55:54 03:00:58 57° 290° (WNW) 03:06:01 437.125/150
YUBILEINY 26 Nov 02:58:40 03:07:22 69° 94° (E) 03:16:04 435.215
HORYU 2 26 Nov 03:00:48 03:04:00 19° 91° (E) 03:07:11 437.375
BEESAT 2 26 Nov 03:00:48 03:03:11 15° 25° (NNE) 03:05:34 435.950
MOZHAYETS 4 26 Nov 03:03:01 03:04:47 12° 55° (NE) 03:06:33
KKS-1 26 Nov 03:33:50 03:36:45 17° 269° (W) 03:39:41 437.445
AIST 2 26 Nov 03:35:15 03:37:56 16° 26° (NNE) 03:40:36 435.215
PCSat 26 Nov 03:48:17 03:53:14 34° 42° (NE) 03:58:09 145.827
ITAMSAT 1 26 Nov 03:49:09 03:54:08 49° 292° (WNW) 03:59:05 435.822/435.867
ISS 26 Nov 03:54:02 03:57:16 50° 8° (N) 04:00:30 145.825
SO-50 26 Nov 03:56:16 04:00:17 32° 117° (ESE) 04:04:26 436.795
RS-15 26 Nov 04:11:28 04:18:08 18° 263° (W) 04:25:00 29.354- 29.394
PRISM 26 Nov 04:13:57 04:15:30 12° 56° (NE) 04:17:03 437.425
AO-7 26 Nov 04:14:00 04:21:37 37° 96° (E) 04:29:11 29.400- 29.500
Gurwin Techsat 1B 26 Nov 04:21:44 04:26:45 43° 293° (WNW) 04:31:45 435.225
BEESAT 3 26 Nov 04:22:46 04:26:49 44° 44° (NE) 04:30:50 437.485
JAS-2 26 Nov 04:25:15 04:29:33 17° 81° (E) 04:33:34 435.910
HORYU 2 26 Nov 04:36:37 04:41:00 54° 289° (WNW) 04:45:23 437.375
MOZHAYETS 4 26 Nov 04:36:38 04:41:14 78° 74° (ENE) 04:45:53
BEESAT 2 26 Nov 04:38:15 04:42:25 53° 47° (NE) 04:46:32 435.950
Oscar 19 26 Nov 04:38:19 04:39:15 11° 310° (NW) 04:40:11 437.125/150
CUBESAT XI-V 26 Nov 04:45:11 04:46:28 11° 54° (NE) 04:47:46 437.345
YUBILEINY 26 Nov 04:57:14 05:04:55 33° 297° (WNW) 05:12:37 435.215
O/OREOS (USA 219) 26 Nov 05:12:51 05:13:34 10° 96° (E) 05:14:17 437.305
AIST 2 26 Nov 05:13:09 05:17:27 60° 48° (NE) 05:21:41 435.215
STRAND 1 26 Nov 05:15:36 05:19:32 23° 59° (ENE) 05:23:28 437.568
ISS 26 Nov 05:30:44 05:34:00 61° 207° (SSW) 05:37:16 145.825
PCSat 26 Nov 05:31:37 05:36:53 52° 243° (WSW) 05:42:07 145.827
CUTE-I 26 Nov 05:32:54 05:34:48 12° 85° (E) 05:36:41 437.470
SO-50 26 Nov 05:36:21 05:40:44 43° 318° (NW) 05:45:16 436.795
PRISM 26 Nov 05:46:09 05:50:22 86° 75° (ENE) 05:54:39 437.425
AIST 1 26 Nov 06:01:07 06:04:15 19° 66° (ENE) 06:07:21
BEESAT 3 26 Nov 06:01:21 06:04:54 27° 244° (WSW) 06:08:24 437.485
AO-7 26 Nov 06:06:37 06:14:48 61° 297° (WNW) 06:22:58 29.400- 29.500
JAS-2 26 Nov 06:08:35 06:15:55 82° 104° (ESE) 06:22:20 435.910
MOZHAYETS 4 26 Nov 06:16:46 06:19:03 14° 273° (W) 06:21:22
BEESAT 2 26 Nov 06:17:10 06:20:24 22° 246° (WSW) 06:23:36 435.950
CUBESAT XI-V 26 Nov 06:18:21 06:23:03 68° 73° (ENE) 06:27:46 437.345
Cubesat XI-IV 26 Nov 06:29:16 06:34:11 37° 97° (E) 06:39:04 437.490
O/OREOS (USA 219) 26 Nov 06:47:42 06:52:11 85° 115° (ESE) 06:56:41 437.305
AIST 2 26 Nov 06:52:34 06:55:42 20° 247° (WSW) 06:58:49 435.215
STRAND 1 26 Nov 06:53:14 06:58:19 61° 258° (WSW) 07:03:26 437.568
GONETS M04 26 Nov 06:57:03 07:02:18 18° 73° (ENE) 07:07:33
ISS 26 Nov 07:08:44 07:10:06 12° 225° (SW) 07:11:28 145.825
CUTE-I 26 Nov 07:10:25 07:15:46 78° 104° (ESE) 07:21:04 437.470
SO-50 26 Nov 07:19:46 07:22:30 15° 341° (NNW) 07:25:18 436.795
PRISM 26 Nov 07:25:34 07:26:33 11° 273° (W) 07:27:32 437.425
AIST 1 26 Nov 07:37:59 07:42:15 51° 266° (W) 07:46:28
JAS-2 26 Nov 07:54:26 08:00:05 25° 307° (NW) 08:05:18 435.910
CUBESAT XI-V 26 Nov 07:58:03 08:00:59 16° 271° (W) 08:03:56 437.345
AO-7 26 Nov 08:00:39 08:06:01 19° 320° (NW) 08:11:23 29.400- 29.500
Cubesat XI-IV 26 Nov 08:09:25 08:14:17 37° 295° (WNW) 08:19:06 437.490
HO-68 26 Nov 08:16:13 08:21:03 19° 88° (E) 08:25:51 435.675
CUTE 1.7 & AOD 2 26 Nov 08:22:48 08:24:12 11° 87° (E) 08:25:35 437.475
O/OREOS (USA 219) 26 Nov 08:29:24 08:32:14 16° 315° (NW) 08:35:04 437.305
GONETS M04 26 Nov 08:48:46 08:57:32 75° 95° (E) 09:06:22
BRITE-PL 26 Nov 08:49:02 08:52:03 19° 92° (E) 08:55:04 437.365/2234.400
CUTE-I 26 Nov 08:51:35 08:55:15 19° 303° (WNW) 08:58:54 437.470
SEEDS 26 Nov 08:53:58 08:57:12 21° 92° (E) 09:00:26 437.485
ANTELSAT 26 Nov 08:54:21 08:56:24 13° 58° (ENE) 08:58:27 437.575/2403.000
SO-50 26 Nov 09:03:21 09:05:05 12° 6° (N) 09:06:50 436.795
POLYITAN 1 26 Nov 09:08:24 09:10:25 13° 58° (ENE) 09:12:26 437.675
AAUSAT CUBESAT 2 26 Nov 09:10:04 09:13:28 23° 93° (E) 09:16:50 437.432
QB50P2 26 Nov 09:10:08 09:12:17 14° 58° (ENE) 09:14:26 145.880/145.840
DOVE 4 26 Nov 09:13:19 09:16:22 19° 92° (E) 09:19:27 437.250
DELFI C3 26 Nov 09:15:19 09:16:41 11° 87° (E) 09:18:04 145.870
DUCHIFAT 1 26 Nov 09:15:38 09:18:04 15° 59° (ENE) 09:20:30 145.980
CANX-2 26 Nov 09:21:50 09:26:01 48° 99° (E) 09:30:10 2200.000
DX 1 26 Nov 09:24:38 09:27:11 15° 90° (E) 09:29:43 434.975-435.025
COMPASS 1 26 Nov 09:25:14 09:29:10 36° 97° (E) 09:33:05 437.405
NANOSAT C BR1 26 Nov 09:34:05 09:37:22 22° 63° (ENE) 09:40:38 145.865
QB50P1 26 Nov 09:43:40 09:47:15 27° 65° (ENE) 09:50:49 145.935-145.965
TIGRISAT 26 Nov 09:46:04 09:49:59 37° 68° (ENE) 09:53:56 435.000
CINEMA 3 26 Nov 09:46:26 09:50:01 26° 95° (E) 09:53:39 145.822/145.860
BUGSAT 1 26 Nov 09:52:25 09:56:01 27° 65° (ENE) 09:59:36 437.445
ZACube-1 26 Nov 09:53:12 09:55:48 16° 90° (E) 09:58:25 437.345
GOMX 1 26 Nov 09:56:10 10:00:19 68° 102° (ESE) 10:04:32 467.674
CUTE 1.7 & AOD 2 26 Nov 09:56:25 10:00:43 83° 285° (WNW) 10:05:01 437.475
VELOX 1 26 Nov 09:57:06 09:58:16 11° 87° (E) 09:59:25 145.980
UNISAT 6 26 Nov 09:59:40 10:03:48 52° 71° (ENE) 10:07:58 437.425
HO-68 26 Nov 10:02:32 10:09:47 87° 108° (ESE) 10:16:57 435.675
POPSAT HIP 1 26 Nov 10:07:56 10:11:59 45° 70° (ENE) 10:16:03 437.405
AISAT 26 Nov 10:21:51 10:25:08 20° 92° (E) 10:28:23 437.250
UKube-1 26 Nov 10:23:33 10:27:50 55° 101° (E) 10:32:05 .
BRITE-PL 26 Nov 10:26:54 10:30:51 43° 290° (WNW) 10:34:48 437.365/2234.400
FUNcube-1 26 Nov 10:27:15 10:31:05 33° 96° (E) 10:34:59 145.935
ANTELSAT 26 Nov 10:28:21 10:32:37 82° 256° (WSW) 10:36:55 437.575/2403.000
SEEDS 26 Nov 10:29:11 10:33:16 44° 290° (WNW) 10:37:20 437.485
Oscar 11 26 Nov 10:34:31 10:38:54 85° 104° (ESE) 10:43:15 145.826/435.025
CUBEBUG 1 26 Nov 10:35:54 10:36:10 10° 86° (E) 10:36:27 437.445
POLYITAN 1 26 Nov 10:41:31 10:45:47 83° 256° (WSW) 10:50:04 437.675
QB50P2 26 Nov 10:43:22 10:47:38 79° 257° (WSW) 10:51:55 145.880/145.840
SO-50 26 Nov 10:43:37 10:47:24 22° 30° (NNE) 10:51:14 436.795
AAUSAT CUBESAT 2 26 Nov 10:45:20 10:49:18 40° 291° (WNW) 10:53:15 437.432
GONETS M04 26 Nov 10:47:47 10:55:17 30° 298° (WNW) 11:02:51
DELFI C3 26 Nov 10:48:23 10:52:33 78° 286° (WNW) 10:56:41 145.870
DUCHIFAT 1 26 Nov 10:49:12 10:53:26 71° 257° (WSW) 10:57:42 145.980
DOVE 4 26 Nov 10:50:26 10:54:24 44° 290° (WNW) 10:58:27 437.250
UWE-3 26 Nov 10:54:07 10:58:21 73° 103° (ESE) 11:02:40 435.000/436.395/437.385
CUBEBUG 2 26 Nov 10:54:43 10:58:57 85° 104° (ESE) 11:03:17 437.445
50 SAT 26 Nov 10:54:54 10:58:36 33° 97° (E) 11:02:18 437.505
CANX-2 26 Nov 10:58:28 11:01:40 21° 297° (WNW) 11:04:53 2200.000
DX 1 26 Nov 10:59:33 11:03:52 64° 288° (WNW) 11:08:09 434.975-435.025
COMPASS 1 26 Nov 11:01:15 11:04:47 26° 295° (WNW) 11:08:19 437.405
HUMSAT D 26 Nov 11:08:32 11:12:39 55° 100° (E) 11:16:46 437.325/437.525
NANOSAT C BR1 26 Nov 11:08:56 11:13:01 44° 261° (W) 11:17:06 145.865
YUBILEINY 26 Nov 11:10:56 11:12:32 11° 40° (NE) 11:14:07 435.215
QB50P1 26 Nov 11:19:08 11:23:02 35° 263° (W) 11:26:58 145.935-145.965
TIGRISAT 26 Nov 11:23:25 11:26:53 24° 266° (W) 11:30:22 435.000
CINEMA 3 26 Nov 11:23:31 11:27:18 34° 292° (WNW) 11:31:10 145.822/145.860
BUGSAT 1 26 Nov 11:27:33 11:31:26 34° 263° (W) 11:35:18 437.445
ZACube-1 26 Nov 11:28:24 11:32:34 58° 288° (WNW) 11:36:47 437.345
VELOX 1 26 Nov 11:31:04 11:35:32 89° 288° (WNW) 11:39:57 145.980
ESTCUBE 1 26 Nov 11:31:13 11:35:30 39° 97° (E) 11:39:44 437.505/2401.250
CUTE 1.7 & AOD 2 26 Nov 11:34:33 11:35:57 11° 303° (WNW) 11:37:21 437.475
GOMX 1 26 Nov 11:35:45 11:38:00 14° 300° (WNW) 11:40:15 467.674
UNISAT 6 26 Nov 11:38:03 11:40:57 18° 269° (W) 11:43:52 437.425
POPSAT HIP 1 26 Nov 11:44:56 11:48:08 20° 268° (W) 11:51:20 437.405
TISAT 1 26 Nov 11:45:10 11:47:30 14° 89° (E) 11:49:49 437.305
HO-68 26 Nov 11:51:11 11:56:41 25° 309° (NW) 12:02:10 435.675
SPROUT 26 Nov 11:55:57 11:58:47 17° 90° (E) 12:01:35 437.525
ITAMSAT 1 26 Nov 11:56:57 11:58:11 11° 50° (NE) 11:59:25 435.822/435.867
AISAT 26 Nov 11:57:46 12:02:03 49° 290° (WNW) 12:06:18 437.250
UKube-1 26 Nov 12:00:34 12:03:39 19° 300° (WNW) 12:06:42 .
FUNcube-1 26 Nov 12:03:48 12:07:23 28° 294° (WNW) 12:11:01 145.935
CUBEBUG 1 26 Nov 12:08:51 12:13:16 87° 105° (ESE) 12:17:36 437.445
Oscar 11 26 Nov 12:12:22 12:14:27 13° 302° (WNW) 12:16:32 145.826/435.025
SO-50 26 Nov 12:23:45 12:28:39 85° 51° (NE) 12:33:34 436.795
DELFI C3 26 Nov 12:26:31 12:27:08 10° 304° (WNW) 12:27:45 145.870
50 SAT 26 Nov 12:30:27 12:33:50 26° 294° (WNW) 12:37:13 437.505
Gurwin Techsat 1B 26 Nov 12:30:38 12:32:53 13° 52° (NE) 12:35:09 435.225
UWE-3 26 Nov 12:32:08 12:34:25 14° 300° (WNW) 12:36:43 435.000/436.395/437.385
CUBEBUG 2 26 Nov 12:33:15 12:35:06 13° 302° (WNW) 12:36:58 437.445
Oscar 19 26 Nov 12:37:35 12:42:27 46° 68° (ENE) 12:47:21 437.125/150
HUMSAT D 26 Nov 12:45:19 12:48:06 18° 298° (WNW) 12:50:54 437.325/437.525
ITUPSAT 1 26 Nov 12:45:52 12:46:50 11° 85° (E) 12:47:48 437.325
SWISSCUBE 26 Nov 12:55:09 12:57:50 15° 88° (E) 13:00:31 437.505
YUBILEINY 26 Nov 13:04:16 13:12:28 42° 68° (ENE) 13:20:33 435.215
ESTCUBE 1 26 Nov 13:08:24 13:12:14 27° 296° (WNW) 13:16:03 437.505/2401.250
VELOX 1 26 Nov 13:09:27 13:11:27 13° 304° (NW) 13:13:28 145.980
AUBIESAT-1 26 Nov 13:16:43 13:20:32 22° 97° (E) 13:24:17 437.475
TISAT 1 26 Nov 13:19:36 13:23:47 63° 288° (WNW) 13:27:56 437.305
M-CUBED/EXP-1 PRIME 26 Nov 13:22:04 13:26:15 27° 99° (E) 13:30:21 437.505
CUSAT 1 26 Nov 13:24:35 13:27:09 53° 99° (E) 13:29:45 437.405
BEESAT 26 Nov 13:25:09 13:29:09 26° 94° (E) 13:33:08 436.000
AO-7 26 Nov 13:27:56 13:33:37 21° 42° (NE) 13:39:18 29.400- 29.500
SPROUT 26 Nov 13:31:01 13:35:14 55° 289° (WNW) 13:39:24 437.525
ITAMSAT 1 26 Nov 13:31:31 13:36:37 57° 70° (ENE) 13:41:44 435.822/435.867
CUBEBUG 1 26 Nov 13:46:57 13:49:00 13° 303° (WNW) 13:51:02 437.445
DANDE 26 Nov 13:52:46 13:55:26 66° 283° (WNW) 13:58:03 436.750
HORYU 2 26 Nov 14:03:00 14:06:46 28° 64° (ENE) 14:10:34 437.375
SO-50 26 Nov 14:05:36 14:08:36 16° 250° (WSW) 14:11:36 436.795
Gurwin Techsat 1B 26 Nov 14:06:38 14:11:54 67° 71° (ENE) 14:17:12 435.225
Oscar 19 26 Nov 14:17:42 14:22:00 27° 266° (W) 14:26:20 437.125/150
ITUPSAT 1 26 Nov 14:20:41 14:25:32 80° 104° (ESE) 14:30:20 437.325
RS-15 26 Nov 14:21:47 14:25:24 12° 92° (E) 14:29:00 29.354- 29.394
SWISSCUBE 26 Nov 14:31:28 14:36:17 77° 287° (WNW) 14:41:04 437.505
STARS 26 Nov 14:38:17 14:41:35 20° 92° (E) 14:44:52 437.465
JAS-2 26 Nov 14:41:43 14:46:20 17° 47° (NE) 14:50:57 435.910
AUBIESAT-1 26 Nov 14:50:59 14:55:50 58° 295° (WNW) 15:00:35 437.475
M-CUBED/EXP-1 PRIME 26 Nov 14:56:42 15:01:28 49° 297° (WNW) 15:06:09 437.505
YUBILEINY 26 Nov 15:01:10 15:09:30 52° 271° (W) 15:17:47 435.215
BEESAT 26 Nov 15:02:38 15:07:11 44° 292° (WNW) 15:11:43 436.000
ITAMSAT 1 26 Nov 15:12:26 15:16:29 23° 268° (W) 15:20:32 435.822/435.867
O/OREOS (USA 219) 26 Nov 15:14:52 15:19:06 41° 57° (ENE) 15:23:20 437.305
PHONESAT 2.4 26 Nov 15:16:18 15:18:00 13° 157° (SSE) 15:19:43 2401.200-2431.200
AO-7 26 Nov 15:16:48 15:24:59 68° 65° (ENE) 15:33:15 29.400- 29.500
KKS-1 26 Nov 15:19:25 15:23:53 73° 103° (ESE) 15:28:18 437.445
VERMONT LUNAR 26 Nov 15:24:12 15:26:29 16° 162° (SSE) 15:28:45 437.305
MaSat-1 26 Nov 15:37:13 15:40:02 50° 117° (ESE) 15:42:36 437.345
HORYU 2 26 Nov 15:39:16 15:43:21 36° 263° (W) 15:47:28 437.375
Gurwin Techsat 1B 26 Nov 15:48:35 15:52:22 20° 270° (W) 15:56:11 435.225
ITUPSAT 1 26 Nov 15:59:52 16:02:51 17° 303° (WNW) 16:05:49 437.325
SWISSCUBE 26 Nov 16:11:19 16:13:21 13° 306° (NW) 16:15:24 437.505
STARS 26 Nov 16:14:06 16:18:20 47° 290° (WNW) 16:22:33 437.465
Cubesat XI-IV 26 Nov 16:17:53 16:21:03 16° 54° (NE) 16:24:13 437.490
JAS-2 26 Nov 16:22:18 16:29:52 59° 67° (ENE) 16:37:31 435.910
RS-15 26 Nov 16:24:27 16:34:58 56° 116° (ESE) 16:45:30 29.354- 29.394
AUBIESAT-1 26 Nov 16:28:09 16:29:52 12° 313° (NW) 16:31:34 437.475
MOZHAYETS 4 26 Nov 16:29:34 16:32:14 15° 88° (E) 16:34:54
M-CUBED/EXP-1 PRIME 26 Nov 16:35:00 16:35:26 10° 315° (NW) 16:35:52 437.505
PHONESAT 2.4 26 Nov 16:53:03 16:56:03 23° 174° (S) 16:59:02 2401.200-2431.200
O/OREOS (USA 219) 26 Nov 16:54:38 16:58:20 26° 256° (WSW) 17:02:01 437.305
CUTE-I 26 Nov 16:57:14 17:01:51 30° 62° (ENE) 17:06:27 437.470
KKS-1 26 Nov 16:57:21 17:00:00 16° 302° (WNW) 17:02:39 437.445
GONETS M04 26 Nov 17:00:05 17:03:12 12° 42° (NE) 17:06:18
VERMONT LUNAR 26 Nov 17:01:20 17:04:17 23° 179° (S) 17:07:13 437.305
YUBILEINY 26 Nov 17:02:53 17:04:04 10° 294° (WNW) 17:05:14 435.215
AO-7 26 Nov 17:11:08 17:18:21 33° 265° (W) 17:25:40 29.400- 29.500
MaSat-1 26 Nov 17:14:12 17:14:45 10° 314° (NW) 17:15:17 437.345
Cubesat XI-IV 26 Nov 17:55:00 18:00:23 85° 74° (ENE) 18:05:47 437.490
MOZHAYETS 4 26 Nov 18:05:20 18:10:00 73° 286° (WNW) 18:14:38
JAS-2 26 Nov 18:08:07 18:15:09 37° 267° (W) 18:22:20 435.910
CUBESAT XI-V 26 Nov 18:13:17 18:15:33 13° 87° (E) 18:17:48 437.345
PHONESAT 2.4 26 Nov 18:31:22 18:34:13 21° 191° (S) 18:37:03 2401.200-2431.200
CUTE-I 26 Nov 18:36:35 18:41:44 46° 261° (W) 18:46:54 437.470
RS-15 26 Nov 18:36:43 18:47:25 57° 322° (NW) 18:58:18 29.354- 29.394
PCSat 26 Nov 18:38:08 18:39:30 11° 101° (E) 18:40:51 145.827
VERMONT LUNAR 26 Nov 18:39:40 18:42:06 17° 196° (SSW) 18:44:32 437.305
HO-68 26 Nov 18:49:16 18:54:46 25° 51° (NE) 19:00:17 435.675
GONETS M04 26 Nov 18:54:29 19:02:57 46° 70° (ENE) 19:11:18
STRAND 1 26 Nov 19:00:11 19:04:50 34° 96° (E) 19:09:26 437.568
PRISM 26 Nov 19:01:17 19:05:34 86° 104° (ESE) 19:09:48 437.425
CUTE 1.7 & AOD 2 26 Nov 19:19:34 19:21:55 15° 59° (ENE) 19:24:17 437.475
GOMX 1 26 Nov 19:32:18 19:35:01 16° 61° (ENE) 19:37:39 467.674
Cubesat XI-IV 26 Nov 19:38:03 19:41:10 16° 272° (W) 19:44:18 437.490
MOZHAYETS 4 26 Nov 19:44:55 19:46:24 11° 305° (NW) 19:47:53
CUBESAT XI-V 26 Nov 19:48:55 19:53:37 80° 285° (WNW) 19:58:15 437.345
UKube-1 26 Nov 19:49:49 19:51:10 11° 55° (NE) 19:52:30 .
SEEDS 26 Nov 19:50:18 19:53:41 24° 65° (ENE) 19:57:06 437.485
Oscar 11 26 Nov 19:59:22 20:01:38 14° 58° (ENE) 20:03:56 145.826/435.025
BEESAT 3 26 Nov 19:59:53 20:03:10 23° 115° (ESE) 20:06:29 437.485
BRITE-PL 26 Nov 20:03:03 20:07:33 39° 69° (ENE) 20:11:46 437.365/2234.400
AAUSAT CUBESAT 2 26 Nov 20:05:21 20:08:48 26° 65° (ENE) 20:12:18 437.432
DELFI C3 26 Nov 20:08:01 20:10:04 14° 59° (ENE) 20:12:07 145.870
AIST 1 26 Nov 20:11:02 20:15:26 78° 98° (E) 20:19:52
BEESAT 2 26 Nov 20:15:37 20:19:13 30° 117° (ESE) 20:22:53 435.950
PCSat 26 Nov 20:16:31 20:21:53 68° 120° (ESE) 20:27:17 145.827
CANX-2 26 Nov 20:18:39 20:22:46 55° 72° (ENE) 20:26:56 2200.000
COMPASS 1 26 Nov 20:20:42 20:24:36 40° 69° (ENE) 20:28:33 437.405
UWE-3 26 Nov 20:21:53 20:23:35 12° 58° (ENE) 20:25:16 435.000/436.395/437.385
DOVE 4 26 Nov 20:22:42 20:26:42 33° 68° (ENE) 20:30:33 437.250
CUBEBUG 2 26 Nov 20:22:49 20:25:03 14° 59° (ENE) 20:27:17 437.445
DX 1 26 Nov 20:23:46 20:27:12 23° 62° (ENE) 20:30:38 434.975-435.025
HO-68 26 Nov 20:34:28 20:41:41 87° 252° (WSW) 20:48:56 435.675
PRISM 26 Nov 20:38:35 20:40:29 13° 303° (WNW) 20:42:23 437.425
STRAND 1 26 Nov 20:39:22 20:44:03 37° 295° (WNW) 20:48:41 437.568
GONETS M04 26 Nov 20:51:31 20:59:50 48° 272° (W) 21:08:05
CINEMA 3 26 Nov 20:52:10 20:56:12 39° 69° (ENE) 21:00:07 145.822/145.860
RS-15 26 Nov 20:52:55 21:02:38 34° 354° (N) 21:12:36 29.354- 29.394
CUTE 1.7 & AOD 2 26 Nov 20:53:08 20:57:20 72° 258° (WSW) 21:01:35 437.475
ZACube-1 26 Nov 20:53:21 20:56:28 21° 63° (ENE) 20:59:35 437.345
AIST 2 26 Nov 20:53:34 20:57:27 36° 119° (ESE) 21:01:24 435.215
VELOX 1 26 Nov 20:57:55 21:00:56 18° 60° (ENE) 21:03:57 145.980
GOMX 1 26 Nov 21:08:01 21:12:43 72° 258° (WSW) 21:17:08 467.674
UKube-1 26 Nov 21:22:14 21:26:35 78° 74° (ENE) 21:30:58 .
AISAT 26 Nov 21:23:39 21:27:33 30° 65° (ENE) 21:31:27 437.250
SEEDS 26 Nov 21:25:27 21:29:22 38° 263° (W) 21:33:19 437.485
FUNcube-1 26 Nov 21:27:09 21:31:06 42° 70° (ENE) 21:35:02 145.935
CUBESAT XI-V 26 Nov 21:28:20 21:30:18 13° 305° (NW) 21:32:14 437.345
Oscar 11 26 Nov 21:32:57 21:37:15 78° 257° (WSW) 21:41:36 145.826/435.025
CUBEBUG 1 26 Nov 21:34:35 21:37:18 16° 59° (ENE) 21:40:01 437.445
BEESAT 3 26 Nov 21:37:07 21:41:08 49° 314° (NW) 21:45:14 437.485
AAUSAT CUBESAT 2 26 Nov 21:40:35 21:44:23 34° 264° (W) 21:48:14 437.432
DELFI C3 26 Nov 21:40:46 21:44:50 74° 257° (WSW) 21:48:57 145.870
BRITE-PL 26 Nov 21:41:59 21:46:10 28° 265° (W) 21:50:07 437.365/2234.400
50 SAT 26 Nov 21:47:36 21:51:17 36° 69° (ENE) 21:55:00 437.505
AIST 1 26 Nov 21:51:31 21:53:43 13° 297° (WNW) 21:55:55
BEESAT 2 26 Nov 21:53:29 21:57:25 40° 317° (NW) 22:01:25 435.950
UWE-3 26 Nov 21:55:19 21:59:32 86° 255° (WSW) 22:03:44 435.000/436.395/437.385
CANX-2 26 Nov 21:56:23 21:59:05 16° 270° (W) 22:01:48 2200.000
CUBEBUG 2 26 Nov 21:57:03 22:01:17 72° 258° (WSW) 22:05:28 437.445
COMPASS 1 26 Nov 21:57:16 22:00:31 22° 268° (W) 22:03:48 437.405
DX 1 26 Nov 21:59:00 22:03:12 45° 261° (W) 22:07:26 434.975-435.025
DOVE 4 26 Nov 22:00:34 22:04:31 29° 264° (W) 22:08:20 437.250
PCSat 26 Nov 22:01:06 22:05:46 28° 321° (NW) 22:10:27 145.827
HUMSAT D 26 Nov 22:04:35 22:08:40 65° 73° (ENE) 22:12:45 437.325/437.525
ANTELSAT 26 Nov 22:17:44 22:20:34 16° 90° (E) 22:23:26 437.575/2403.000
HO-68 26 Nov 22:25:32 22:30:23 19° 272° (W) 22:35:16 435.675
POLYITAN 1 26 Nov 22:25:34 22:27:29 13° 88° (E) 22:29:23 437.675
QB50P2 26 Nov 22:27:04 22:29:08 13° 89° (E) 22:31:12 145.880/145.840
ZACube-1 26 Nov 22:28:35 22:32:37 45° 261° (W) 22:36:37 437.345
CINEMA 3 26 Nov 22:30:06 22:33:34 23° 266° (W) 22:36:58 145.822/145.860
AIST 2 26 Nov 22:32:09 22:36:06 35° 319° (NW) 22:40:07 435.215
DUCHIFAT 1 26 Nov 22:32:14 22:34:37 15° 90° (E) 22:36:59 145.980
VELOX 1 26 Nov 22:32:39 22:37:05 63° 258° (WSW) 22:41:33 145.980
ESTCUBE 1 26 Nov 22:34:33 22:39:00 57° 71° (ENE) 22:43:30 437.505/2401.250
TISAT 1 26 Nov 22:41:29 22:44:33 20° 62° (ENE) 22:47:37 437.305
M-CUBED/EXP-1 PRIME 26 Nov 22:44:59 22:45:20 10° 45° (NE) 22:45:41 437.505
DANDE 26 Nov 22:45:21 22:47:52 15° 68° (ENE) 22:50:46 436.750
NANOSAT C BR1 26 Nov 22:51:04 22:54:26 23° 93° (E) 22:57:47 145.865
SPROUT 26 Nov 22:53:57 22:57:19 23° 63° (ENE) 23:00:41 437.525
AISAT 26 Nov 23:00:03 23:04:08 34° 263° (W) 23:08:13 437.250
QB50P1 26 Nov 23:00:53 23:04:34 28° 95° (E) 23:08:13 145.935-145.965
UKube-1 26 Nov 23:01:26 23:03:19 13° 272° (W) 23:05:13 .
FUNcube-1 26 Nov 23:04:30 23:07:40 21° 268° (W) 23:10:50 145.935
BUGSAT 1 26 Nov 23:06:36 23:10:05 26° 95° (E) 23:13:30 437.445
RS-15 26 Nov 23:07:57 23:18:27 45° 28° (NNE) 23:29:18 29.354- 29.394
CUBEBUG 1 26 Nov 23:08:44 23:13:11 71° 257° (WSW) 23:17:38 437.445
TIGRISAT 26 Nov 23:10:16 23:14:34 50° 100° (E) 23:18:57 435.000
BEESAT 3 26 Nov 23:18:10 23:20:21 14° 336° (NNW) 23:22:33 437.485
50 SAT 26 Nov 23:23:30 23:26:43 23° 266° (W) 23:29:57 437.505
UNISAT 6 26 Nov 23:24:25 23:28:51 71° 102° (ESE) 23:33:23 437.425
POPSAT HIP 1 26 Nov 23:25:33 23:29:40 50° 100° (E) 23:33:46 437.405
BEESAT 2 26 Nov 23:35:01 23:36:50 12° 339° (NNW) 23:38:40 435.950
MaSat-1 26 Nov 23:38:16 23:39:47 15° 50° (NE) 23:41:18 437.345
HUMSAT D 26 Nov 23:42:51 23:44:56 14° 271° (W) 23:47:01 437.325/437.525
PCSat 26 Nov 23:49:01 23:51:05 12° 346° (NNW) 23:53:09 145.827
ISS 26 Nov 23:51:04 23:53:58 29° 144° (SE) 23:56:53 145.825
ANTELSAT 26 Nov 23:53:23 23:57:46 62° 288° (WNW) 00:02:15 437.575/2403.000
ITUPSAT 1 26 Nov 23:55:07 23:58:41 21° 60° (ENE) 00:02:15 437.325
CUSAT 1 26 Nov 23:56:46 00:01:12 71° 78° (ENE) 00:07:13 437.405
POLYITAN 1 26 Nov 23:59:43 00:03:57 72° 286° (WNW) 00:08:10 437.675
QB50P2 27 Nov 00:01:20 00:05:34 70° 287° (WNW) 00:09:46 145.880/145.840
SWISSCUBE 27 Nov 00:05:06 00:09:06 27° 63° (ENE) 00:13:08 437.505
DUCHIFAT 1 27 Nov 00:06:45 00:10:55 62° 288° (WNW) 00:15:04 145.980
AUBIESAT-1 27 Nov 00:09:21 00:13:23 45° 63° (ENE) 00:17:46 437.475
ESTCUBE 1 27 Nov 00:13:05 00:16:15 18° 269° (W) 00:19:26 437.505/2401.250
AIST 2 27 Nov 00:14:15 00:15:59 12° 341° (NNW) 00:17:43 435.215
M-CUBED/EXP-1 PRIME 27 Nov 00:15:13 00:19:20 55° 65° (ENE) 00:23:50 437.505
TISAT 1 27 Nov 00:15:55 00:20:04 51° 260° (W) 00:24:15 437.305
NANOSAT C BR1 27 Nov 00:26:32 00:30:29 39° 291° (WNW) 00:34:25 145.865
DANDE 27 Nov 00:27:13 00:31:30 75° 260° (W) 00:37:23 436.750
SPROUT 27 Nov 00:29:03 00:33:11 44° 261° (W) 00:37:20 437.525
BEESAT 27 Nov 00:35:15 00:39:48 45° 68° (ENE) 00:44:23 436.000
QB50P1 27 Nov 00:36:44 00:40:29 32° 293° (WNW) 00:44:14 145.935-145.965
BUGSAT 1 27 Nov 00:41:58 00:45:38 32° 293° (WNW) 00:49:15 437.445
KKS-1 27 Nov 00:47:15 00:49:44 15° 58° (ENE) 00:52:13 437.445
Oscar 19 27 Nov 00:47:20 00:49:14 12° 86° (E) 00:51:09 437.125/150
TIGRISAT 27 Nov 00:47:44 00:51:03 21° 297° (WNW) 00:54:24 435.000
POPSAT HIP 1 27 Nov 01:02:14 01:05:16 20° 298° (WNW) 01:08:18 437.405
UNISAT 6 27 Nov 01:02:28 01:05:11 16° 300° (WNW) 01:07:56 437.425
MaSat-1 27 Nov 01:12:33 01:14:14 18° 248° (WSW) 01:15:57 437.345
